Time,TemperatureF,DewpointF,PressureIn,WindDirection,WindDirectionDegrees,WindSpeedMPH,WindSpeedGustMPH,Humidity,HourlyPrecipIn,Conditions,Clouds,dailyrainin,SoftwareType,DateUTC
2013-04-03 00:00:00,30.0,12.2,30.01,SSW,200,0.0,5.0,47,0.00,,,0.00,VWS V14.01,2013-04-03 04:00:00,
2013-04-03 00:06:00,30.0,11.7,30.02,SSE,167,0.0,2.0,46,0.00,,,0.00,VWS V14.01,2013-04-03 04:06:00,
2013-04-03 00:11:00,30.1,12.3,30.02,WSW,249,0.0,2.0,47,0.00,,,0.00,VWS V14.01,2013-04-03 04:11:00,
2013-04-03 00:17:00,29.9,12.6,30.02,SW,236,0.0,2.0,48,0.00,,,0.00,VWS V14.01,2013-04-03 04:17:00,
2013-04-03 00:21:00,29.5,13.6,30.02,SW,236,0.0,2.0,51,0.00,,,0.00,VWS V14.01,2013-04-03 04:21:00,
2013-04-03 00:27:00,29.0,14.0,30.02,SE,144,0.0,2.0,53,0.00,,,0.00,VWS V14.01,2013-04-03 04:27:00,
2013-04-03 00:32:00,28.6,13.6,30.02,SE,144,0.0,0.0,53,0.00,,,0.00,VWS V14.01,2013-04-03 04:32:00,
2013-04-03 00:37:00,28.5,12.7,30.02,East,99,1.0,2.0,51,0.00,,,0.00,VWS V14.01,2013-04-03 04:37:00,
2013-04-03 00:42:00,28.5,13.1,30.02,East,90,2.0,4.0,52,0.00,,,0.00,VWS V14.01,2013-04-03 04:42:00,
2013-04-03 00:47:00,28.5,13.6,30.02,East,90,0.0,4.0,53,0.00,,,0.00,VWS V14.01,2013-04-03 04:47:00,
2013-04-03 00:52:00,28.6,13.2,30.02,East,90,0.0,4.0,52,0.00,,,0.00,VWS V14.01,2013-04-03 04:52:00,
2013-04-03 00:57:00,28.7,13.8,30.02,East,90,0.0,4.0,53,0.00,,,0.00,VWS V14.01,2013-04-03 04:57:00,
2013-04-03 01:02:00,29.0,14.4,30.02,NNE,18,0.0,4.0,54,0.00,,,0.00,VWS V14.01,2013-04-03 05:02:00,
2013-04-03 01:07:00,29.4,14.8,30.02,NNE,23,0.0,4.0,54,0.00,,,0.00,VWS V14.01,2013-04-03 05:07:00,
2013-04-03 01:12:00,29.7,15.5,30.03,SE,142,0.0,5.0,55,0.00,,,0.00,VWS V14.01,2013-04-03 05:12:00,
2013-04-03 01:17:00,29.6,15.4,30.03,SE,142,0.0,5.0,55,0.00,,,0.00,VWS V14.01,2013-04-03 05:17:00,
2013-04-03 01:22:00,29.3,15.6,30.03,NE,41,0.0,5.0,56,0.00,,,0.00,VWS V14.01,2013-04-03 05:22:00,
2013-04-03 01:28:00,29.0,15.7,30.03,NE,41,0.0,5.0,57,0.00,,,0.00,VWS V14.01,2013-04-03 05:28:00,
2013-04-03 01:33:00,29.2,15.5,30.03,NNW,329,1.0,5.0,56,0.00,,,0.00,VWS V14.01,2013-04-03 05:33:00,
2013-04-03 01:38:00,29.5,14.9,30.03,NE,46,0.0,5.0,54,0.00,,,0.00,VWS V14.01,2013-04-03 05:38:00,
2013-04-03 01:43:00,29.6,15.0,30.03,NE,46,0.0,5.0,54,0.00,,,0.00,VWS V14.01,2013-04-03 05:43:00,
2013-04-03 01:48:00,29.5,14.9,30.03,NE,46,0.0,5.0,54,0.00,,,0.00,VWS V14.01,2013-04-03 05:48:00,
2013-04-03 01:53:00,29.4,14.8,30.02,East,96,1.0,6.0,54,0.00,,,0.00,VWS V14.01,2013-04-03 05:53:00,
2013-04-03 01:58:00,29.5,15.3,30.03,ESE,122,0.0,6.0,55,0.00,,,0.00,VWS V14.01,2013-04-03 05:58:00,
2013-04-03 02:03:00,29.8,15.2,30.03,NW,314,1.0,7.0,54,0.00,,,0.00,VWS V14.01,2013-04-03 06:03:00,
2013-04-03 02:08:00,30.0,15.4,30.02,WNW,292,0.0,7.0,54,0.00,,,0.00,VWS V14.01,2013-04-03 06:08:00,
2013-04-03 02:13:00,29.9,15.3,30.02,WNW,292,0.0,7.0,54,0.00,,,0.00,VWS V14.01,2013-04-03 06:13:00,
2013-04-03 02:18:00,29.6,15.8,30.02,WNW,292,0.0,7.0,56,0.00,,,0.00,VWS V14.01,2013-04-03 06:18:00,
2013-04-03 02:23:00,29.3,16.0,30.02,WNW,292,0.0,7.0,57,0.00,,,0.00,VWS V14.01,2013-04-03 06:23:00,
2013-04-03 02:28:00,29.0,16.1,30.02,WNW,292,0.0,7.0,58,0.00,,,0.00,VWS V14.01,2013-04-03 06:28:00,
2013-04-03 02:33:00,28.6,16.1,30.02,SE,140,2.0,7.0,59,0.00,,,0.00,VWS V14.01,2013-04-03 06:33:00,
2013-04-03 02:38:00,28.7,16.2,30.02,NNW,337,1.0,7.0,59,0.00,,,0.00,VWS V14.01,2013-04-03 06:38:00,
2013-04-03 02:43:00,28.9,16.4,30.02,SE,138,0.0,7.0,59,0.00,,,0.00,VWS V14.01,2013-04-03 06:43:00,
2013-04-03 02:48:00,28.9,16.8,30.02,ENE,63,0.0,7.0,60,0.00,,,0.00,VWS V14.01,2013-04-03 06:48:00,
2013-04-03 02:53:00,28.7,16.6,30.02,ENE,63,0.0,7.0,60,0.00,,,0.00,VWS V14.01,2013-04-03 06:53:00,
2013-04-03 02:59:00,28.3,16.6,30.02,NNW,344,1.0,7.0,61,0.00,,,0.00,VWS V14.01,2013-04-03 06:59:00,
2013-04-03 03:04:00,28.5,16.8,30.02,SE,134,0.0,4.0,61,0.00,,,0.00,VWS V14.01,2013-04-03 07:04:00,
2013-04-03 03:09:00,28.5,16.8,30.02,SE,126,0.0,4.0,61,0.00,,,0.00,VWS V14.01,2013-04-03 07:09:00,
2013-04-03 03:14:00,28.5,16.4,30.02,WSW,247,0.0,4.0,60,0.00,,,0.00,VWS V14.01,2013-04-03 07:14:00,
2013-04-03 03:19:00,28.6,16.5,30.02,South,178,0.0,4.0,60,0.00,,,0.00,VWS V14.01,2013-04-03 07:19:00,
2013-04-03 03:24:00,28.7,16.6,30.02,SSE,149,0.0,4.0,60,0.00,,,0.00,VWS V14.01,2013-04-03 07:24:00,
2013-04-03 03:29:00,28.7,16.6,30.02,ENE,59,0.0,4.0,60,0.00,,,0.00,VWS V14.01,2013-04-03 07:29:00,
2013-04-03 03:34:00,28.5,16.4,30.02,ENE,59,0.0,0.0,60,0.00,,,0.00,VWS V14.01,2013-04-03 07:34:00,
2013-04-03 03:39:00,28.4,16.3,30.02,ENE,59,0.0,0.0,60,0.00,,,0.00,VWS V14.01,2013-04-03 07:39:00,
2013-04-03 03:44:00,28.4,15.9,30.02,NE,37,0.0,4.0,59,0.00,,,0.00,VWS V14.01,2013-04-03 07:44:00,
2013-04-03 03:49:00,28.4,17.1,30.02,NE,37,0.0,4.0,62,0.00,,,0.00,VWS V14.01,2013-04-03 07:49:00,
2013-04-03 03:54:00,28.4,16.3,30.02,NE,37,0.0,4.0,60,0.00,,,0.00,VWS V14.01,2013-04-03 07:54:00,
2013-04-03 03:59:00,28.3,16.6,30.02,East,82,0.0,4.0,61,0.00,,,0.00,VWS V14.01,2013-04-03 07:59:00,
2013-04-03 04:04:00,28.1,16.8,30.02,East,82,0.0,0.0,62,0.00,,,0.00,VWS V14.01,2013-04-03 08:04:00,
2013-04-03 04:10:00,27.8,16.1,30.02,ESE,117,0.0,2.0,61,0.00,,,0.00,VWS V14.01,2013-04-03 08:10:00,
2013-04-03 04:15:00,27.6,16.3,30.02,ESE,117,0.0,2.0,62,0.00,,,0.00,VWS V14.01,2013-04-03 08:15:00,
2013-04-03 04:20:00,27.5,16.6,30.02,ESE,117,0.0,4.0,63,0.00,,,0.00,VWS V14.01,2013-04-03 08:20:00,
2013-04-03 04:25:00,27.2,15.9,30.02,ESE,117,0.0,4.0,62,0.00,,,0.00,VWS V14.01,2013-04-03 08:25:00,
2013-04-03 04:30:00,27.1,16.2,30.02,ESE,117,0.0,4.0,63,0.00,,,0.00,VWS V14.01,2013-04-03 08:30:00,
2013-04-03 04:35:00,26.9,16.4,30.02,ESE,117,0.0,0.0,64,0.00,,,0.00,VWS V14.01,2013-04-03 08:35:00,
2013-04-03 04:40:00,26.6,15.7,30.03,ESE,117,0.0,0.0,63,0.00,,,0.00,VWS V14.01,2013-04-03 08:40:00,
2013-04-03 04:45:00,26.5,16.0,30.03,ESE,117,0.0,2.0,64,0.00,,,0.00,VWS V14.01,2013-04-03 08:45:00,
2013-04-03 04:50:00,26.5,16.3,30.02,ESE,117,0.0,2.0,65,0.00,,,0.00,VWS V14.01,2013-04-03 08:50:00,
2013-04-03 04:55:00,26.4,16.2,30.02,ESE,117,0.0,2.0,65,0.00,,,0.00,VWS V14.01,2013-04-03 08:55:00,
2013-04-03 05:00:00,26.3,16.5,30.02,ESE,117,0.0,2.0,66,0.00,,,0.00,VWS V14.01,2013-04-03 09:00:00,
2013-04-03 05:05:00,26.1,16.3,30.03,ESE,117,0.0,0.0,66,0.00,,,0.00,VWS V14.01,2013-04-03 09:05:00,
2013-04-03 05:11:00,26.0,16.2,30.03,ESE,117,0.0,0.0,66,0.00,,,0.00,VWS V14.01,2013-04-03 09:11:00,
2013-04-03 05:16:00,26.0,16.6,30.03,ESE,117,0.0,1.0,67,0.00,,,0.00,VWS V14.01,2013-04-03 09:16:00,
2013-04-03 05:21:00,25.9,16.5,30.03,ESE,117,0.0,2.0,67,0.00,,,0.00,VWS V14.01,2013-04-03 09:21:00,
2013-04-03 05:26:00,25.8,16.4,30.03,ESE,117,0.0,2.0,67,0.00,,,0.00,VWS V14.01,2013-04-03 09:26:00,
2013-04-03 05:31:00,25.9,16.1,30.04,ESE,117,0.0,0.0,66,0.00,,,0.00,VWS V14.01,2013-04-03 09:31:00,
2013-04-03 05:36:00,26.0,16.2,30.04,ESE,117,0.0,1.0,66,0.00,,,0.00,VWS V14.01,2013-04-03 09:36:00,
2013-04-03 05:41:00,25.9,16.5,30.04,ESE,117,0.0,1.0,67,0.00,,,0.00,VWS V14.01,2013-04-03 09:41:00,
2013-04-03 05:46:00,25.8,16.4,30.04,ESE,117,1.0,1.0,67,0.00,,,0.00,VWS V14.01,2013-04-03 09:46:00,
2013-04-03 05:52:00,25.7,16.3,30.04,ESE,117,0.0,1.0,67,0.00,,,0.00,VWS V14.01,2013-04-03 09:52:00,
2013-04-03 05:57:00,26.0,16.2,30.05,ESE,117,0.0,2.0,66,0.00,,,0.00,VWS V14.01,2013-04-03 09:57:00,
2013-04-03 06:02:00,26.2,16.4,30.05,ESE,117,0.0,0.0,66,0.00,,,0.00,VWS V14.01,2013-04-03 10:02:00,
2013-04-03 06:07:00,26.1,16.3,30.05,ESE,117,0.0,1.0,66,0.00,,,0.00,VWS V14.01,2013-04-03 10:07:00,
2013-04-03 06:12:00,26.1,16.3,30.05,ESE,117,0.0,1.0,66,0.00,,,0.00,VWS V14.01,2013-04-03 10:12:00,
2013-04-03 06:17:00,26.1,16.3,30.05,ESE,117,0.0,1.0,66,0.00,,,0.00,VWS V14.01,2013-04-03 10:17:00,
2013-04-03 06:22:00,26.1,16.0,30.05,ESE,117,0.0,1.0,65,0.00,,,0.00,VWS V14.01,2013-04-03 10:22:00,
2013-04-03 06:27:00,26.0,16.2,30.06,ESE,117,0.0,2.0,66,0.00,,,0.00,VWS V14.01,2013-04-03 10:27:00,
2013-04-03 06:32:00,26.1,16.3,30.06,NNE,20,0.0,5.0,66,0.00,,,0.00,VWS V14.01,2013-04-03 10:32:00,
2013-04-03 06:37:00,26.5,16.0,30.06,SE,128,0.0,5.0,64,0.00,,,0.00,VWS V14.01,2013-04-03 10:37:00,
2013-04-03 06:42:00,26.9,16.0,30.06,SE,128,0.0,5.0,63,0.00,,,0.00,VWS V14.01,2013-04-03 10:42:00,
2013-04-03 06:47:00,26.9,16.7,30.06,ESE,123,0.0,5.0,65,0.00,,,0.00,VWS V14.01,2013-04-03 10:47:00,
2013-04-03 06:52:00,26.9,16.4,30.07,ESE,123,0.0,5.0,64,0.00,,,0.00,VWS V14.01,2013-04-03 10:52:00,
2013-04-03 06:57:00,26.9,16.7,30.07,SE,124,1.0,5.0,65,0.00,,,0.00,VWS V14.01,2013-04-03 10:57:00,
2013-04-03 07:02:00,27.2,16.3,30.07,SSE,154,0.0,2.0,63,0.00,,,0.00,VWS V14.01,2013-04-03 11:02:00,
2013-04-03 07:07:00,27.4,17.5,30.07,SSE,154,0.0,2.0,66,0.00,,,0.00,VWS V14.01,2013-04-03 11:07:00,
2013-04-03 07:13:00,27.5,16.9,30.08,SSE,154,0.0,2.0,64,0.00,,,0.00,VWS V14.01,2013-04-03 11:13:00,
2013-04-03 07:18:00,27.6,17.0,30.08,SSE,154,0.0,2.0,64,0.00,,,0.00,VWS V14.01,2013-04-03 11:18:00,
2013-04-03 07:23:00,27.8,17.6,30.08,SSE,154,0.0,2.0,65,0.00,,,0.00,VWS V14.01,2013-04-03 11:23:00,
2013-04-03 07:28:00,27.8,17.2,30.08,SSE,154,0.0,2.0,64,0.00,,,0.00,VWS V14.01,2013-04-03 11:28:00,
2013-04-03 07:33:00,28.1,17.1,30.08,SSE,154,0.0,0.0,63,0.00,,,0.00,VWS V14.01,2013-04-03 11:33:00,
2013-04-03 07:38:00,28.8,17.8,30.08,SE,130,0.0,1.0,63,0.00,,,0.00,VWS V14.01,2013-04-03 11:38:00,
2013-04-03 07:43:00,29.6,17.4,30.08,South,179,2.0,5.0,60,0.00,,,0.00,VWS V14.01,2013-04-03 11:43:00,
2013-04-03 07:48:00,30.3,17.7,30.08,East,92,1.0,5.0,59,0.00,,,0.00,VWS V14.01,2013-04-03 11:48:00,
2013-04-03 07:53:00,30.8,17.0,30.08,NE,55,0.0,5.0,56,0.00,,,0.00,VWS V14.01,2013-04-03 11:53:00,
2013-04-03 07:58:00,31.6,17.7,30.08,NE,55,1.0,5.0,56,0.00,,,0.00,VWS V14.01,2013-04-03 11:58:00,
2013-04-03 08:03:00,32.2,17.9,30.08,ESE,114,1.0,4.0,55,0.00,,,0.00,VWS V14.01,2013-04-03 12:03:00,
2013-04-03 08:08:00,32.6,17.4,30.08,ENE,66,1.0,5.0,53,0.00,,,0.00,VWS V14.01,2013-04-03 12:08:00,
2013-04-03 08:13:00,32.9,17.2,30.09,WNW,291,1.0,6.0,52,0.00,,,0.00,VWS V14.01,2013-04-03 12:13:00,
2013-04-03 08:18:00,33.2,16.6,30.09,NNW,329,1.0,7.0,50,0.00,,,0.00,VWS V14.01,2013-04-03 12:18:00,
2013-04-03 08:23:00,33.5,17.3,30.09,SSE,147,6.0,7.0,51,0.00,,,0.00,VWS V14.01,2013-04-03 12:23:00,
2013-04-03 08:28:00,33.6,17.4,30.08,SSE,159,2.0,7.0,51,0.00,,,0.00,VWS V14.01,2013-04-03 12:28:00,
2013-04-03 08:34:00,33.7,16.6,30.08,SE,140,4.0,7.0,49,0.00,,,0.00,VWS V14.01,2013-04-03 12:34:00,
2013-04-03 08:39:00,34.1,17.4,30.08,NE,44,0.0,7.0,50,0.00,,,0.00,VWS V14.01,2013-04-03 12:39:00,
2013-04-03 08:44:00,34.5,16.9,30.08,SE,144,1.0,7.0,48,0.00,,,0.00,VWS V14.01,2013-04-03 12:44:00,
2013-04-03 08:49:00,34.6,16.9,30.08,NNW,341,0.0,7.0,48,0.00,,,0.00,VWS V14.01,2013-04-03 12:49:00,
2013-04-03 08:54:00,34.5,16.9,30.08,SE,145,6.0,7.0,48,0.00,,,0.00,VWS V14.01,2013-04-03 12:54:00,
2013-04-03 08:59:00,33.9,16.3,30.08,NNW,329,0.0,7.0,48,0.00,,,0.00,VWS V14.01,2013-04-03 12:59:00,
2013-04-03 09:04:00,33.4,16.3,30.08,SE,145,1.0,10.0,49,0.00,,,0.00,VWS V14.01,2013-04-03 13:04:00,
2013-04-03 09:09:00,33.3,17.1,30.09,SE,132,5.0,10.0,51,0.00,,,0.00,VWS V14.01,2013-04-03 13:09:00,
2013-04-03 09:14:00,33.2,16.6,30.09,SE,132,0.0,10.0,50,0.00,,,0.00,VWS V14.01,2013-04-03 13:14:00,
2013-04-03 09:19:00,33.1,17.0,30.09,ESE,110,2.0,10.0,51,0.00,,,0.00,VWS V14.01,2013-04-03 13:19:00,
2013-04-03 09:24:00,33.5,16.9,30.09,South,189,1.0,10.0,50,0.00,,,0.00,VWS V14.01,2013-04-03 13:24:00,
2013-04-03 09:29:00,33.9,18.1,30.09,WNW,301,3.0,10.0,52,0.00,,,0.00,VWS V14.01,2013-04-03 13:29:00,
2013-04-03 09:34:00,34.2,18.0,30.09,SSW,200,2.0,4.0,51,0.00,,,0.00,VWS V14.01,2013-04-03 13:34:00,
2013-04-03 09:39:00,34.7,17.5,30.09,South,190,4.0,6.0,49,0.00,,,0.00,VWS V14.01,2013-04-03 13:39:00,
2013-04-03 09:44:00,34.6,17.4,30.09,SE,128,0.0,6.0,49,0.00,,,0.00,VWS V14.01,2013-04-03 13:44:00,
2013-04-03 09:49:00,35.6,17.9,30.09,North,355,0.0,6.0,48,0.00,,,0.00,VWS V14.01,2013-04-03 13:49:00,
2013-04-03 09:54:00,36.7,17.4,30.09,ENE,65,3.0,7.0,45,0.00,,,0.00,VWS V14.01,2013-04-03 13:54:00,
2013-04-03 10:00:00,37.0,15.5,30.09,South,180,3.0,10.0,41,0.00,,,0.00,VWS V14.01,2013-04-03 14:00:00,
2013-04-03 10:05:00,36.8,15.3,30.09,NNW,329,1.0,7.0,41,0.00,,,0.00,VWS V14.01,2013-04-03 14:05:00,
2013-04-03 10:10:00,37.1,16.7,30.09,NNW,333,5.0,8.0,43,0.00,,,0.00,VWS V14.01,2013-04-03 14:10:00,
2013-04-03 10:15:00,36.7,15.8,30.09,South,184,0.0,13.0,42,0.00,,,0.00,VWS V14.01,2013-04-03 14:15:00,
2013-04-03 10:20:00,37.2,16.8,30.08,SSE,151,6.0,13.0,43,0.00,,,0.00,VWS V14.01,2013-04-03 14:20:00,
2013-04-03 10:25:00,37.4,15.9,30.09,South,170,5.0,13.0,41,0.00,,,0.00,VWS V14.01,2013-04-03 14:25:00,
2013-04-03 10:30:00,37.3,15.8,30.09,SSE,157,9.0,13.0,41,0.00,,,0.00,VWS V14.01,2013-04-03 14:30:00,
2013-04-03 10:35:00,37.3,16.9,30.09,NW,319,8.0,9.0,43,0.00,,,0.00,VWS V14.01,2013-04-03 14:35:00,
2013-04-03 10:40:00,36.9,16.0,30.09,NE,41,3.0,11.0,42,0.00,,,0.00,VWS V14.01,2013-04-03 14:40:00,
2013-04-03 10:45:00,36.4,16.0,30.08,ESE,121,6.0,12.0,43,0.00,,,0.00,VWS V14.01,2013-04-03 14:45:00,
2013-04-03 10:50:00,37.2,16.8,30.09,ENE,64,3.0,12.0,43,0.00,,,0.00,VWS V14.01,2013-04-03 14:50:00,
2013-04-03 10:55:00,38.1,17.0,30.09,East,80,2.0,12.0,42,0.00,,,0.00,VWS V14.01,2013-04-03 14:55:00,
2013-04-03 11:00:00,38.8,17.1,30.09,NNW,337,1.0,12.0,41,0.00,,,0.00,VWS V14.01,2013-04-03 15:00:00,
2013-04-03 11:05:00,38.7,15.9,30.09,ENE,65,10.0,10.0,39,0.00,,,0.00,VWS V14.01,2013-04-03 15:05:00,
2013-04-03 11:10:00,38.4,16.8,30.08,ESE,119,1.0,10.0,41,0.00,,,0.00,VWS V14.01,2013-04-03 15:10:00,
2013-04-03 11:16:00,39.2,16.9,30.08,ESE,123,1.0,10.0,40,0.00,,,0.00,VWS V14.01,2013-04-03 15:16:00,
2013-04-03 11:21:00,39.5,16.0,30.08,North,355,3.0,10.0,38,0.00,,,0.00,VWS V14.01,2013-04-03 15:21:00,
2013-04-03 11:26:00,39.1,18.0,30.09,SW,234,2.0,13.0,42,0.00,,,0.00,VWS V14.01,2013-04-03 15:26:00,
2013-04-03 11:31:00,40.1,16.5,30.08,SSE,165,5.0,5.0,38,0.00,,,0.00,VWS V14.01,2013-04-03 15:31:00,
2013-04-03 11:36:00,39.7,16.2,30.09,SSE,155,1.0,11.0,38,0.00,,,0.00,VWS V14.01,2013-04-03 15:36:00,
2013-04-03 11:41:00,40.0,16.5,30.08,SSE,155,1.0,11.0,38,0.00,,,0.00,VWS V14.01,2013-04-03 15:41:00,
2013-04-03 11:47:00,40.4,14.9,30.09,SSW,196,0.0,11.0,35,0.00,,,0.00,VWS V14.01,2013-04-03 15:47:00,
2013-04-03 11:52:00,40.4,15.6,30.08,East,88,3.0,11.0,36,0.00,,,0.00,VWS V14.01,2013-04-03 15:52:00,
2013-04-03 11:57:00,40.1,15.9,30.08,SSE,151,4.0,11.0,37,0.00,,,0.00,VWS V14.01,2013-04-03 15:57:00,
2013-04-03 12:02:00,40.1,15.9,30.09,West,273,2.0,10.0,37,0.00,,,0.00,VWS V14.01,2013-04-03 16:02:00,
2013-04-03 12:07:00,40.5,16.3,30.08,South,184,1.0,10.0,37,0.00,,,0.00,VWS V14.01,2013-04-03 16:07:00,
2013-04-03 12:12:00,41.0,17.4,30.09,NE,40,1.0,11.0,38,0.00,,,0.00,VWS V14.01,2013-04-03 16:12:00,
2013-04-03 12:17:00,41.2,16.3,30.08,SSW,202,4.0,11.0,36,0.00,,,0.00,VWS V14.01,2013-04-03 16:17:00,
2013-04-03 12:22:00,41.1,16.2,30.09,NE,42,3.0,11.0,36,0.00,,,0.00,VWS V14.01,2013-04-03 16:22:00,
2013-04-03 12:27:00,41.3,17.0,30.08,ESE,115,2.0,11.0,37,0.00,,,0.00,VWS V14.01,2013-04-03 16:27:00,
2013-04-03 12:32:00,41.3,17.0,30.08,East,93,1.0,5.0,37,0.00,,,0.00,VWS V14.01,2013-04-03 16:32:00,
2013-04-03 12:37:00,41.5,16.5,30.07,SSE,149,4.0,7.0,36,0.00,,,0.00,VWS V14.01,2013-04-03 16:37:00,
2013-04-03 12:42:00,41.7,15.4,30.08,SSW,204,3.0,7.0,34,0.00,,,0.00,VWS V14.01,2013-04-03 16:42:00,
2013-04-03 12:47:00,41.7,16.7,30.07,ENE,69,2.0,9.0,36,0.00,,,0.00,VWS V14.01,2013-04-03 16:47:00,
2013-04-03 12:52:00,42.6,17.5,30.08,SSW,211,1.0,9.0,36,0.00,,,0.00,VWS V14.01,2013-04-03 16:52:00,
2013-04-03 12:57:00,42.8,16.4,30.07,NNE,20,3.0,9.0,34,0.00,,,0.00,VWS V14.01,2013-04-03 16:57:00,
2013-04-03 13:02:00,42.4,16.7,30.07,SSE,153,5.0,6.0,35,0.00,,,0.00,VWS V14.01,2013-04-03 17:02:00,
2013-04-03 13:07:00,42.5,14.7,30.07,SSE,164,1.0,7.0,32,0.00,,,0.00,VWS V14.01,2013-04-03 17:07:00,
2013-04-03 13:13:00,42.4,15.4,30.07,NNW,342,5.0,10.0,33,0.00,,,0.00,VWS V14.01,2013-04-03 17:13:00,
2013-04-03 13:18:00,42.9,15.1,30.08,WSW,240,0.0,10.0,32,0.00,,,0.00,VWS V14.01,2013-04-03 17:18:00,
2013-04-03 13:23:00,43.7,16.5,30.08,East,98,1.0,10.0,33,0.00,,,0.00,VWS V14.01,2013-04-03 17:23:00,
2013-04-03 13:28:00,44.2,16.2,30.07,NE,37,2.0,10.0,32,0.00,,,0.00,VWS V14.01,2013-04-03 17:28:00,
2013-04-03 13:33:00,43.9,14.5,30.08,NNW,331,8.0,8.0,30,0.00,,,0.00,VWS V14.01,2013-04-03 17:33:00,
2013-04-03 13:38:00,43.2,16.1,30.07,ESE,103,7.0,11.0,33,0.00,,,0.00,VWS V14.01,2013-04-03 17:38:00,
2013-04-03 13:43:00,43.3,17.5,30.07,NNE,16,1.0,11.0,35,0.00,,,0.00,VWS V14.01,2013-04-03 17:43:00,
2013-04-03 13:48:00,43.3,14.7,30.07,SSE,159,4.0,11.0,31,0.00,,,0.00,VWS V14.01,2013-04-03 17:48:00,
2013-04-03 13:53:00,43.1,13.8,30.07,WSW,258,5.0,13.0,30,0.00,,,0.00,VWS V14.01,2013-04-03 17:53:00,
2013-04-03 13:58:00,41.7,12.6,30.07,North,5,1.0,13.0,30,0.00,,,0.00,VWS V14.01,2013-04-03 17:58:00,
2013-04-03 14:04:00,42.2,15.9,30.07,SSW,192,3.0,6.0,34,0.00,,,0.00,VWS V14.01,2013-04-03 18:04:00,
2013-04-03 14:09:00,43.1,16.0,30.06,SSW,200,2.0,8.0,33,0.00,,,0.00,VWS V14.01,2013-04-03 18:09:00,
2013-04-03 14:14:00,43.3,16.1,30.06,SSE,153,2.0,8.0,33,0.00,,,0.00,VWS V14.01,2013-04-03 18:14:00,
2013-04-03 14:20:00,43.7,15.1,30.06,SSW,212,0.0,9.0,31,0.00,,,0.00,VWS V14.01,2013-04-03 18:20:00,
2013-04-03 14:25:00,44.7,18.1,30.06,SE,138,2.0,9.0,34,0.00,,,0.00,VWS V14.01,2013-04-03 18:25:00,
2013-04-03 14:30:00,45.4,17.3,30.06,NNE,12,5.0,9.0,32,0.00,,,0.00,VWS V14.01,2013-04-03 18:30:00,
2013-04-03 14:35:00,45.5,15.9,30.06,ESE,111,0.0,8.0,30,0.00,,,0.00,VWS V14.01,2013-04-03 18:35:00,
2013-04-03 14:40:00,45.2,15.6,30.06,SSE,148,2.0,8.0,30,0.00,,,0.00,VWS V14.01,2013-04-03 18:40:00,
2013-04-03 14:45:00,45.2,16.4,30.05,SE,145,2.0,8.0,31,0.00,,,0.00,VWS V14.01,2013-04-03 18:45:00,
2013-04-03 14:50:00,45.5,18.1,30.05,SE,131,2.0,8.0,33,0.00,,,0.00,VWS V14.01,2013-04-03 18:50:00,
2013-04-03 14:55:00,46.3,18.8,30.05,SSE,161,4.0,8.0,33,0.00,,,0.00,VWS V14.01,2013-04-03 18:55:00,
2013-04-03 15:00:00,46.6,16.1,30.06,South,172,4.0,9.0,29,0.00,,,0.00,VWS V14.01,2013-04-03 19:00:00,
2013-04-03 15:05:00,46.1,14.8,30.05,NW,308,2.0,9.0,28,0.00,,,0.00,VWS V14.01,2013-04-03 19:05:00,
2013-04-03 15:11:00,46.0,14.7,30.06,South,169,4.0,9.0,28,0.00,,,0.00,VWS V14.01,2013-04-03 19:11:00,
2013-04-03 15:16:00,45.8,16.9,30.05,North,350,0.0,9.0,31,0.00,,,0.00,VWS V14.01,2013-04-03 19:16:00,
2013-04-03 15:21:00,45.8,13.7,30.05,SSW,192,3.0,15.0,27,0.00,,,0.00,VWS V14.01,2013-04-03 19:21:00,
2013-04-03 15:26:00,45.5,15.9,30.05,South,184,4.0,15.0,30,0.00,,,0.00,VWS V14.01,2013-04-03 19:26:00,
2013-04-03 15:31:00,45.9,15.4,30.05,North,355,2.0,12.0,29,0.00,,,0.00,VWS V14.01,2013-04-03 19:31:00,
2013-04-03 15:36:00,45.6,14.4,30.05,East,94,5.0,12.0,28,0.00,,,0.00,VWS V14.01,2013-04-03 19:36:00,
2013-04-03 15:41:00,45.5,13.5,30.05,NNW,347,1.0,12.0,27,0.00,,,0.00,VWS V14.01,2013-04-03 19:41:00,
2013-04-03 15:47:00,45.6,15.2,30.05,NNE,26,1.0,12.0,29,0.00,,,0.00,VWS V14.01,2013-04-03 19:47:00,
2013-04-03 15:52:00,45.6,13.6,30.05,SSE,164,5.0,12.0,27,0.00,,,0.00,VWS V14.01,2013-04-03 19:52:00,
2013-04-03 15:57:00,45.0,12.2,30.06,SSW,194,2.0,12.0,26,0.00,,,0.00,VWS V14.01,2013-04-03 19:57:00,
2013-04-03 16:02:00,45.1,14.8,30.06,South,180,3.0,10.0,29,0.00,,,0.00,VWS V14.01,2013-04-03 20:02:00,
2013-04-03 16:07:00,44.5,14.2,30.06,North,9,2.0,10.0,29,0.00,,,0.00,VWS V14.01,2013-04-03 20:07:00,
2013-04-03 16:12:00,44.3,14.8,30.06,South,190,3.0,10.0,30,0.00,,,0.00,VWS V14.01,2013-04-03 20:12:00,
2013-04-03 16:17:00,44.4,13.4,30.06,ESE,111,2.0,10.0,28,0.00,,,0.00,VWS V14.01,2013-04-03 20:17:00,
2013-04-03 16:22:00,44.5,12.6,30.06,SSW,212,1.0,10.0,27,0.00,,,0.00,VWS V14.01,2013-04-03 20:22:00,
2013-04-03 16:27:00,44.6,13.5,30.07,NE,53,1.0,10.0,28,0.00,,,0.00,VWS V14.01,2013-04-03 20:27:00,
2013-04-03 16:32:00,44.3,14.1,30.07,SE,146,4.0,8.0,29,0.00,,,0.00,VWS V14.01,2013-04-03 20:32:00,
2013-04-03 16:37:00,44.0,13.8,30.06,ENE,69,3.0,8.0,29,0.00,,,0.00,VWS V14.01,2013-04-03 20:37:00,
2013-04-03 16:42:00,44.3,14.1,30.07,WNW,287,8.0,8.0,29,0.00,,,0.00,VWS V14.01,2013-04-03 20:42:00,
2013-04-03 16:48:00,43.9,15.2,30.07,North,5,6.0,12.0,31,0.00,,,0.00,VWS V14.01,2013-04-03 20:48:00,
2013-04-03 16:53:00,43.5,13.4,30.07,ESE,115,1.0,12.0,29,0.00,,,0.00,VWS V14.01,2013-04-03 20:53:00,
2013-04-03 16:58:00,43.5,13.4,30.07,West,271,0.0,12.0,29,0.00,,,0.00,VWS V14.01,2013-04-03 20:58:00,
2013-04-03 17:03:00,43.4,14.1,30.08,East,90,4.0,10.0,30,0.00,,,0.00,VWS V14.01,2013-04-03 21:03:00,
2013-04-03 17:08:00,42.6,13.4,30.08,NW,310,0.0,10.0,30,0.00,,,0.00,VWS V14.01,2013-04-03 21:08:00,
2013-04-03 17:13:00,42.4,14.6,30.09,ESE,123,4.0,10.0,32,0.00,,,0.00,VWS V14.01,2013-04-03 21:13:00,
2013-04-03 17:18:00,42.2,13.0,30.09,WNW,284,6.0,10.0,30,0.00,,,0.00,VWS V14.01,2013-04-03 21:18:00,
2013-04-03 17:23:00,41.8,14.1,30.08,NNW,346,5.0,10.0,32,0.00,,,0.00,VWS V14.01,2013-04-03 21:23:00,
2013-04-03 17:28:00,41.6,11.7,30.09,ENE,62,6.0,10.0,29,0.00,,,0.00,VWS V14.01,2013-04-03 21:28:00,
2013-04-03 17:33:00,41.2,12.9,30.09,SE,125,2.0,6.0,31,0.00,,,0.00,VWS V14.01,2013-04-03 21:33:00,
2013-04-03 17:38:00,41.1,12.8,30.09,South,181,0.0,9.0,31,0.00,,,0.00,VWS V14.01,2013-04-03 21:38:00,
2013-04-03 17:43:00,40.9,13.3,30.09,South,178,2.0,9.0,32,0.00,,,0.00,VWS V14.01,2013-04-03 21:43:00,
2013-04-03 17:48:00,40.6,13.1,30.09,NE,52,1.0,9.0,32,0.00,,,0.00,VWS V14.01,2013-04-03 21:48:00,
2013-04-03 17:53:00,40.6,13.8,30.10,South,179,6.0,9.0,33,0.00,,,0.00,VWS V14.01,2013-04-03 21:53:00,
2013-04-03 17:59:00,40.4,13.6,30.10,ESE,106,1.0,13.0,33,0.00,,,0.00,VWS V14.01,2013-04-03 21:59:00,
2013-04-03 18:04:00,40.2,14.1,30.10,East,84,1.0,6.0,34,0.00,,,0.00,VWS V14.01,2013-04-03 22:04:00,
2013-04-03 18:09:00,40.0,13.2,30.11,NW,313,0.0,8.0,33,0.00,,,0.00,VWS V14.01,2013-04-03 22:09:00,
2013-04-03 18:14:00,39.7,13.6,30.11,SSE,158,2.0,8.0,34,0.00,,,0.00,VWS V14.01,2013-04-03 22:14:00,
2013-04-03 18:19:00,39.5,13.5,30.11,ENE,71,0.0,8.0,34,0.00,,,0.00,VWS V14.01,2013-04-03 22:19:00,
2013-04-03 18:24:00,39.2,13.2,30.12,SSE,168,2.0,11.0,34,0.00,,,0.00,VWS V14.01,2013-04-03 22:24:00,
2013-04-03 18:30:00,38.9,13.6,30.12,SSE,160,0.0,14.0,35,0.00,,,0.00,VWS V14.01,2013-04-03 22:30:00,
2013-04-03 18:35:00,38.7,13.4,30.12,SE,137,1.0,9.0,35,0.00,,,0.00,VWS V14.01,2013-04-03 22:35:00,
2013-04-03 18:40:00,38.5,13.2,30.12,South,173,0.0,9.0,35,0.00,,,0.00,VWS V14.01,2013-04-03 22:40:00,
2013-04-03 18:45:00,38.3,13.7,30.12,SSW,197,3.0,9.0,36,0.00,,,0.00,VWS V14.01,2013-04-03 22:45:00,
2013-04-03 18:50:00,38.2,13.6,30.14,South,182,0.0,9.0,36,0.00,,,0.00,VWS V14.01,2013-04-03 22:50:00,
2013-04-03 18:55:00,38.0,14.1,30.14,South,173,6.0,9.0,37,0.00,,,0.00,VWS V14.01,2013-04-03 22:55:00,
2013-04-03 19:00:00,37.7,13.8,30.14,North,355,6.0,9.0,37,0.00,,,0.00,VWS V14.01,2013-04-03 23:00:00,
2013-04-03 19:05:00,37.5,13.0,30.14,SW,224,0.0,7.0,36,0.00,,,0.00,VWS V14.01,2013-04-03 23:05:00,
2013-04-03 19:10:00,37.2,13.3,30.15,South,183,0.0,7.0,37,0.00,,,0.00,VWS V14.01,2013-04-03 23:10:00,
2013-04-03 19:15:00,37.0,13.2,30.15,SE,130,0.0,7.0,37,0.00,,,0.00,VWS V14.01,2013-04-03 23:15:00,
2013-04-03 19:20:00,36.7,12.9,30.14,West,279,2.0,7.0,37,0.00,,,0.00,VWS V14.01,2013-04-03 23:20:00,
2013-04-03 19:25:00,36.5,12.7,30.15,ESE,121,4.0,7.0,37,0.00,,,0.00,VWS V14.01,2013-04-03 23:25:00,
2013-04-03 19:30:00,36.4,12.6,30.15,NE,56,2.0,7.0,37,0.00,,,0.00,VWS V14.01,2013-04-03 23:30:00,
2013-04-03 19:35:00,36.3,12.5,30.15,NNE,32,0.0,7.0,37,0.00,,,0.00,VWS V14.01,2013-04-03 23:35:00,
2013-04-03 19:40:00,36.2,12.4,30.16,ESE,106,2.0,7.0,37,0.00,,,0.00,VWS V14.01,2013-04-03 23:40:00,
2013-04-03 19:45:00,36.2,12.4,30.16,WNW,300,1.0,8.0,37,0.00,,,0.00,VWS V14.01,2013-04-03 23:45:00,
2013-04-03 19:50:00,35.9,12.2,30.16,WSW,247,0.0,8.0,37,0.00,,,0.00,VWS V14.01,2013-04-03 23:50:00,
2013-04-03 19:56:00,35.7,12.6,30.16,SSE,165,0.0,8.0,38,0.00,,,0.00,VWS V14.01,2013-04-03 23:56:00,
2013-04-03 20:01:00,35.6,12.5,30.16,SE,132,4.0,5.0,38,0.00,,,0.00,VWS V14.01,2013-04-04 00:01:00,
2013-04-03 20:06:00,35.5,13.0,30.17,South,182,0.0,6.0,39,0.00,,,0.00,VWS V14.01,2013-04-04 00:06:00,
2013-04-03 20:11:00,35.4,12.3,30.17,NNW,340,1.0,7.0,38,0.00,,,0.00,VWS V14.01,2013-04-04 00:11:00,
2013-04-03 20:16:00,35.4,12.3,30.17,NW,307,0.0,7.0,38,0.00,,,0.00,VWS V14.01,2013-04-04 00:16:00,
2013-04-03 20:21:00,35.2,12.7,30.18,ENE,64,0.0,7.0,39,0.00,,,0.00,VWS V14.01,2013-04-04 00:21:00,
2013-04-03 20:26:00,34.9,13.0,30.18,South,191,0.0,7.0,40,0.00,,,0.00,VWS V14.01,2013-04-04 00:26:00,
2013-04-03 20:32:00,34.6,13.3,30.18,WNW,286,1.0,1.0,41,0.00,,,0.00,VWS V14.01,2013-04-04 00:32:00,
2013-04-03 20:37:00,34.4,13.7,30.18,SE,125,1.0,6.0,42,0.00,,,0.00,VWS V14.01,2013-04-04 00:37:00,
2013-04-03 20:42:00,34.5,13.2,30.18,South,175,0.0,8.0,41,0.00,,,0.00,VWS V14.01,2013-04-04 00:42:00,
2013-04-03 20:47:00,34.6,13.3,30.19,North,5,1.0,10.0,41,0.00,,,0.00,VWS V14.01,2013-04-04 00:47:00,
2013-04-03 20:52:00,34.6,13.3,30.19,South,182,1.0,10.0,41,0.00,,,0.00,VWS V14.01,2013-04-04 00:52:00,
2013-04-03 20:57:00,34.5,13.2,30.19,NW,311,3.0,10.0,41,0.00,,,0.00,VWS V14.01,2013-04-04 00:57:00,
2013-04-03 21:02:00,34.4,13.7,30.19,ESE,119,2.0,5.0,42,0.00,,,0.00,VWS V14.01,2013-04-04 01:02:00,
2013-04-03 21:07:00,34.1,13.4,30.20,NW,319,0.0,5.0,42,0.00,,,0.00,VWS V14.01,2013-04-04 01:07:00,
2013-04-03 21:12:00,33.8,13.7,30.20,ESE,120,0.0,5.0,43,0.00,,,0.00,VWS V14.01,2013-04-04 01:12:00,
2013-04-03 21:17:00,33.7,13.6,30.21,ENE,74,0.0,5.0,43,0.00,,,0.00,VWS V14.01,2013-04-04 01:17:00,
2013-04-03 21:22:00,33.4,13.3,30.21,South,172,0.0,5.0,43,0.00,,,0.00,VWS V14.01,2013-04-04 01:22:00,
2013-04-03 21:27:00,33.4,13.9,30.21,NNE,30,4.0,5.0,44,0.00,,,0.00,VWS V14.01,2013-04-04 01:27:00,
2013-04-03 21:32:00,33.3,14.3,30.21,North,360,0.0,1.0,45,0.00,,,0.00,VWS V14.01,2013-04-04 01:32:00,
2013-04-03 21:37:00,33.1,14.1,30.21,NE,51,1.0,4.0,45,0.00,,,0.00,VWS V14.01,2013-04-04 01:37:00,
2013-04-03 21:43:00,33.0,14.5,30.22,NNW,338,0.0,4.0,46,0.00,,,0.00,VWS V14.01,2013-04-04 01:43:00,
2013-04-03 21:48:00,32.9,14.9,30.22,ENE,63,0.0,4.0,47,0.00,,,0.00,VWS V14.01,2013-04-04 01:48:00,
2013-04-03 21:53:00,32.7,15.2,30.22,ENE,63,0.0,4.0,48,0.00,,,0.00,VWS V14.01,2013-04-04 01:53:00,
2013-04-03 21:58:00,32.2,15.7,30.22,NNE,29,0.0,4.0,50,0.00,,,0.00,VWS V14.01,2013-04-04 01:58:00,
2013-04-03 22:03:00,31.9,14.9,30.22,NNE,30,0.0,1.0,49,0.00,,,0.00,VWS V14.01,2013-04-04 02:03:00,
2013-04-03 22:08:00,31.8,14.8,30.22,SE,130,0.0,2.0,49,0.00,,,0.00,VWS V14.01,2013-04-04 02:08:00,
2013-04-03 22:13:00,31.8,15.3,30.22,SSE,150,0.0,7.0,50,0.00,,,0.00,VWS V14.01,2013-04-04 02:13:00,
2013-04-03 22:18:00,31.7,15.7,30.23,ESE,119,0.0,7.0,51,0.00,,,0.00,VWS V14.01,2013-04-04 02:18:00,
2013-04-03 22:23:00,31.5,15.0,30.23,WNW,290,0.0,7.0,50,0.00,,,0.00,VWS V14.01,2013-04-04 02:23:00,
2013-04-03 22:28:00,31.6,15.6,30.23,ESE,109,2.0,7.0,51,0.00,,,0.00,VWS V14.01,2013-04-04 02:28:00,
2013-04-03 22:33:00,31.7,15.7,30.23,NW,316,0.0,2.0,51,0.00,,,0.00,VWS V14.01,2013-04-04 02:33:00,
2013-04-03 22:38:00,31.6,15.6,30.23,NE,40,1.0,2.0,51,0.00,,,0.00,VWS V14.01,2013-04-04 02:38:00,
2013-04-03 22:44:00,31.4,15.4,30.23,ENE,61,0.0,2.0,51,0.00,,,0.00,VWS V14.01,2013-04-04 02:44:00,
2013-04-03 22:49:00,31.4,15.8,30.23,ENE,61,0.0,2.0,52,0.00,,,0.00,VWS V14.01,2013-04-04 02:49:00,
2013-04-03 22:54:00,31.1,16.0,30.24,NNE,27,1.0,3.0,53,0.00,,,0.00,VWS V14.01,2013-04-04 02:54:00,
2013-04-03 22:59:00,30.9,15.4,30.24,NNE,22,1.0,3.0,52,0.00,,,0.00,VWS V14.01,2013-04-04 02:59:00,
2013-04-03 23:04:00,31.0,15.4,30.24,NNE,18,0.0,1.0,52,0.00,,,0.00,VWS V14.01,2013-04-04 03:04:00,
2013-04-03 23:09:00,31.0,15.4,30.24,ENE,76,0.0,3.0,52,0.00,,,0.00,VWS V14.01,2013-04-04 03:09:00,
2013-04-03 23:15:00,30.8,15.7,30.24,NW,318,2.0,3.0,53,0.00,,,0.00,VWS V14.01,2013-04-04 03:15:00,
2013-04-03 23:20:00,30.9,15.4,30.25,NNE,32,0.0,4.0,52,0.00,,,0.00,VWS V14.01,2013-04-04 03:20:00,
2013-04-03 23:25:00,30.8,15.3,30.25,NNE,31,0.0,4.0,52,0.00,,,0.00,VWS V14.01,2013-04-04 03:25:00,
2013-04-03 23:30:00,30.6,15.9,30.24,NE,35,3.0,4.0,54,0.00,,,0.00,VWS V14.01,2013-04-04 03:30:00,
2013-04-03 23:35:00,30.6,15.5,30.25,NNE,32,0.0,2.0,53,0.00,,,0.00,VWS V14.01,2013-04-04 03:35:00,
2013-04-03 23:40:00,30.5,15.9,30.25,West,277,0.0,2.0,54,0.00,,,0.00,VWS V14.01,2013-04-04 03:40:00,
2013-04-03 23:45:00,30.3,15.7,30.25,West,277,0.0,2.0,54,0.00,,,0.00,VWS V14.01,2013-04-04 03:45:00,
2013-04-03 23:50:00,30.0,15.4,30.25,West,277,0.0,2.0,54,0.00,,,0.00,VWS V14.01,2013-04-04 03:50:00,
2013-04-03 23:55:00,29.7,16.4,30.26,West,277,0.0,2.0,57,0.00,,,0.00,VWS V14.01,2013-04-04 03:55:00,